Huntington, WV

6:49 PM EDT on March 23, 2017 (GMT -0400)
Tri-State / Ferguson

Weather History for KHTS - August, 2014

Change the Weather History Date:

Friday, August 8, 2014

  Actual Average Record
Temperature  
Mean Temperature 66 °F 76 °F  
Max Temperature 71 °F 86 °F 100 °F (1930)
Min Temperature 61 °F 65 °F 48 °F (1989)
Degree Days  
Heating Degree Days 0 0  
Month to date heating degree days 0 0  
Since 1 June heating degree days 3 12  
Since 1 July heating degree days 3 0  
Cooling Degree Days 1 11  
Month to date cooling degree days 43 88  
Year to date cooling degree days 638 758  
Since 1 June cooling degree days 524 645  
Growing Degree Days 16 (Base 50)    
Moisture  
Dew Point 64 °F    
Average Humidity 91    
Maximum Humidity 100    
Minimum Humidity 81    
Precipitation  
Precipitation 0.06 in 0.13 in 1.33 in (1977)
Month to date precipitation 0.59 1.02  
Year to date precipitation 28.65 27.53  
Snow  
Snow 0.00 in - - ()
Month to date snowfall 0.0  
Since 1 September snowfall 36.8  
Snow Depth 0.00 in    
Sea Level Pressure  
Sea Level Pressure 30.05 in    
Wind  
Wind Speed 2 mph (ENE)    
Max Wind Speed 8 mph    
Max Gust Speed 10 mph    
Visibility 8 miles    
Events Rain    
T = Trace of Precipitation, MM = Missing Value Source: NWS Daily Summary

Daily Weather History Graph

Daily Weather History Graph

Search for Another Location

Airport or City:

Trip Planner

Search our weather history database for the weather conditions in past years. The results will help you decide how hot, cold, wet, or windy it might be!

Date:

Astronomy

Aug. 08, 2014 Rise Set
Actual Time 6:38 AM EDT 8:32 PM EDT
Civil Twilight 6:09 AM EDT 9:01 PM EDT
Nautical Twilight 5:34 AM EDT 9:36 PM EDT
Astronomical Twilight 4:57 AM EDT 10:13 PM EDT
Moon 6:42 PM EDT (8/8) 4:10 AM EDT (8/8)
Length of Visible Light 14h 51m
Length of Day
13h 54m
Waxing Gibbous, 93% of the Moon is Illuminated
Aug 8
Waxing Gibbous
Aug 10
Full
Aug 17
Last Quarter
Aug 25
New
Sep 2
First Quarter

Hourly Weather History & Observations

Time (EDT) Temp. Dew Point Humidity Pressure Visibility Wind Dir Wind Speed Gust Speed Precip Events Conditions
12:51 AM 63.0 °F 60.1 °F 90% 30.05 in 10.0 mi Calm Calm - N/A   Clear
1:51 AM 64.4 °F 59.0 °F 83% 30.06 in 10.0 mi Calm Calm - N/A   Clear
2:51 AM 62.1 °F 60.1 °F 93% 30.03 in 10.0 mi Calm Calm - N/A   Clear
3:51 AM 62.1 °F 61.0 °F 96% 30.03 in 10.0 mi Calm Calm - N/A   Clear
4:51 AM 62.1 °F 60.1 °F 93% 30.03 in 10.0 mi North 3.5 mph - N/A   Clear
5:51 AM 62.6 °F 59.0 °F 88% 30.06 in 10.0 mi NE 3.5 mph - N/A   Clear
6:51 AM 62.1 °F 59.0 °F 90% 30.05 in 10.0 mi NNE 3.5 mph - N/A   Clear
7:51 AM 62.6 °F 60.8 °F 94% 30.07 in 10.0 mi NNE 3.5 mph - N/A   Mostly Cloudy
8:51 AM 63.0 °F 60.1 °F 90% 30.06 in 10.0 mi Calm Calm - N/A   Partly Cloudy
9:51 AM 64.9 °F 60.1 °F 84% 30.06 in 10.0 mi ENE 3.5 mph - N/A   Partly Cloudy
10:51 AM 64.4 °F 60.8 °F 88% 30.08 in 10.0 mi ESE 3.5 mph - N/A   Mostly Cloudy
11:51 AM 66.9 °F 61.0 °F 81% 30.07 in 10.0 mi Calm Calm - N/A   Overcast
12:51 PM 68.0 °F 62.1 °F 81% 30.07 in 10.0 mi Calm Calm - 0.00 in   Overcast
1:51 PM 70.0 °F 64.0 °F 81% 30.06 in 10.0 mi Calm Calm - 0.00 in   Mostly Cloudy
2:51 PM 70.0 °F 66.0 °F 87% 30.06 in 6.0 mi North - - 0.00 in Rain Light Rain
3:06 PM 71.1 °F 66.0 °F 84% 30.07 in 6.0 mi North 3.5 mph - 0.00 in Rain Light Rain
3:51 PM 70.0 °F 66.9 °F 90% 30.04 in 5.0 mi NNE 3.5 mph - 0.03 in Rain Light Rain
4:51 PM 70.0 °F 68.0 °F 93% 30.04 in 10.0 mi ENE 3.5 mph - 0.02 in   Overcast
5:34 PM 70.0 °F 68.0 °F 93% 30.04 in 5.0 mi ESE 3.5 mph - 0.00 in Rain Light Rain
5:51 PM 70.0 °F 68.0 °F 93% 30.03 in 5.0 mi ESE 3.5 mph - 0.00 in   Mostly Cloudy
6:39 PM 70.0 °F 68.0 °F 93% 30.04 in 5.0 mi ENE 4.6 mph - 0.01 in Rain Light Rain
6:51 PM 69.8 °F 68.0 °F 94% 30.04 in 4.0 mi NE 3.5 mph - N/A Rain Light Rain
7:51 PM 69.1 °F 68.0 °F 96% 30.03 in 3.0 mi East 5.8 mph - 0.00 in   Overcast
7:58 PM 69.1 °F 68.0 °F 96% 30.04 in 5.0 mi East 4.6 mph - N/A   Overcast
8:21 PM 69.1 °F 68.0 °F 96% 30.04 in 5.0 mi East 4.6 mph - N/A   Overcast
8:51 PM 69.1 °F 68.0 °F 96% 30.02 in 10.0 mi ESE 3.5 mph - N/A   Overcast
9:51 PM 68.0 °F 68.0 °F 100% 30.02 in 10.0 mi East 3.5 mph - N/A   Overcast
10:51 PM 68.0 °F 66.9 °F 96% 30.03 in 10.0 mi ENE 4.6 mph - N/A   Overcast
11:51 PM 68.0 °F 66.9 °F 96% 30.03 in 3.0 mi ENE 5.8 mph - N/A   Scattered Clouds